When you browse on this site, cookies collect data to enhance your experience and personalize the content and advertising you see.
Visit our Privacy Policy to learn more. By continuing to use the site, you agree to this use of cookies and data.
  • en France
  • Liste des pays
  • À 7 jours
  • Température de l'eau
  • Carte satellitaire
  • Carte météo
  • Widgets météo
  • user-avatar
    Se connecter

    Météo par heure à Darwin

    Ce jour, 26 Avril, Vendredi

    Heure Température Précipitation Vent Pression Humidité
    00:00 +28°C° 0 mm 2 m/s 757 mmHg 55%
    01:00 +28°C° 0 mm 2 m/s 757 mmHg 57%
    02:00 +27°C° 0 mm 2 m/s 757 mmHg 59%
    03:00 +27°C° 0 mm 3 m/s 757 mmHg 61%
    04:00 +26°C° 0 mm 3 m/s 757 mmHg 63%
    05:00 +26°C° 0 mm 3 m/s 757 mmHg 65%
    06:00 +26°C° 0 mm 3 m/s 757 mmHg 68%
    07:00 +27°C° 0 mm 4 m/s 757 mmHg 63%
    08:00 +29°C° 0 mm 4 m/s 757 mmHg 58%
    09:00 +30°C° 0 mm 5 m/s 758 mmHg 53%
    10:00 +33°C° 0 mm 5 m/s 757 mmHg 47%
    11:00 +35°C° 0 mm 5 m/s 757 mmHg 42%
    12:00 +36°C° 0 mm 5 m/s 757 mmHg 36%
    13:00 +37°C° 0 mm 4 m/s 756 mmHg 36%
    14:00 +37°C° 0 mm 3 m/s 756 mmHg 35%
    15:00 +37°C° 0 mm 3 m/s 755 mmHg 35%
    16:00 +36°C° 0 mm 2 m/s 755 mmHg 40%
    17:00 +34°C° 0 mm 2 m/s 755 mmHg 45%
    18:00 +32°C° 0 mm 2 m/s 755 mmHg 50%
    19:00 +31°C° 0 mm 1 m/s 756 mmHg 53%
    20:00 +30°C° 0 mm 1 m/s 756 mmHg 55%
    21:00 +29°C° 0 mm 1 m/s 757 mmHg 57%
    22:00 +29°C° 0 mm 1 m/s 757 mmHg 58%
    23:00 +28°C° 0 mm 1 m/s 757 mmHg 60%

    Demain, 27 Avril, Samedi

    Heure Température Précipitation Vent Pression Humidité
    00:00 +28°C° 0 mm 2 m/s 757 mmHg 61%
    01:00 +27°C° 0 mm 2 m/s 757 mmHg 61%
    02:00 +27°C° 0 mm 2 m/s 757 mmHg 61%
    03:00 +26°C° 0 mm 2 m/s 757 mmHg 62%
    04:00 +26°C° 0 mm 2 m/s 757 mmHg 63%
    05:00 +26°C° 0 mm 1 m/s 757 mmHg 64%
    06:00 +26°C° 0 mm 1 m/s 757 mmHg 65%
    07:00 +27°C° 0 mm 2 m/s 757 mmHg 63%
    08:00 +28°C° 0 mm 3 m/s 758 mmHg 61%
    09:00 +30°C° 0 mm 3 m/s 758 mmHg 60%
    10:00 +33°C° 0 mm 3 m/s 758 mmHg 53%
    11:00 +34°C° 0 mm 3 m/s 757 mmHg 47%
    12:00 +36°C° 0 mm 3 m/s 757 mmHg 40%
    13:00 +36°C° 0 mm 3 m/s 757 mmHg 40%
    14:00 +37°C° 0 mm 3 m/s 756 mmHg 40%
    15:00 +37°C° 0 mm 3 m/s 755 mmHg 41%
    16:00 +35°C° 0 mm 2 m/s 755 mmHg 46%
    17:00 +34°C° 0 mm 2 m/s 756 mmHg 51%
    18:00 +32°C° 0 mm 2 m/s 756 mmHg 56%
    19:00 +31°C° 0 mm 2 m/s 756 mmHg 57%
    20:00 +31°C° 0 mm 1 m/s 757 mmHg 59%
    21:00 +31°C° 0 mm 1 m/s 757 mmHg 61%
    22:00 +30°C° 0 mm 1 m/s 757 mmHg 62%
    23:00 +28°C° 0 mm 0 m/s 757 mmHg 63%

    Après-demain, 28 Avril, Dimanche

    Heure Température Précipitation Vent Pression Humidité
    00:00 +28°C° 0 mm 0 m/s 758 mmHg 65%
    01:00 +29°C° 0 mm 1 m/s 757 mmHg 66%
    02:00 +29°C° 0 mm 1 m/s 757 mmHg 66%
    03:00 +29°C° 0 mm 1 m/s 756 mmHg 67%
    04:00 +28°C° 0 mm 2 m/s 757 mmHg 69%
    05:00 +28°C° 0 mm 2 m/s 757 mmHg 70%
    06:00 +28°C° 0 mm 2 m/s 757 mmHg 72%
    07:00 +29°C° 0 mm 2 m/s 757 mmHg 68%
    08:00 +30°C° 0 mm 3 m/s 758 mmHg 65%
    09:00 +33°C° 0 mm 3 m/s 759 mmHg 61%
    10:00 +34°C° 0 mm 3 m/s 758 mmHg 55%
    11:00 +36°C° 0 mm 4 m/s 758 mmHg 49%
    12:00 +37°C° 0 mm 4 m/s 758 mmHg 42%
    13:00 +37°C° 0 mm 4 m/s 757 mmHg 43%
    14:00 +37°C° 0 mm 4 m/s 756 mmHg 43%
    15:00 +37°C° 0 mm 4 m/s 756 mmHg 44%
    16:00 +35°C° 0 mm 3 m/s 756 mmHg 49%
    17:00 +34°C° 0 mm 3 m/s 756 mmHg 54%
    18:00 +32°C° 0 mm 2 m/s 756 mmHg 59%
    19:00 +31°C° 0.1 mm 3 m/s 757 mmHg 62%
    20:00 +31°C° 0.1 mm 3 m/s 758 mmHg 65%
    21:00 +30°C° 0.1 mm 4 m/s 758 mmHg 67%
    22:00 +29°C° 1 mm 3 m/s 758 mmHg 71%
    23:00 +29°C° 1 mm 3 m/s 758 mmHg 75%

    29 Avril, Lundi

    Heure Température Précipitation Vent Pression Humidité
    00:00 +28°C° 1 mm 3 m/s 758 mmHg 79%
    01:00 +28°C° 0.8 mm 3 m/s 758 mmHg 81%
    02:00 +27°C° 0.8 mm 4 m/s 757 mmHg 82%
    03:00 +27°C° 0.8 mm 4 m/s 757 mmHg 84%
    04:00 +27°C° 0.2 mm 4 m/s 757 mmHg 83%
    05:00 +27°C° 0.2 mm 4 m/s 758 mmHg 82%
    06:00 +27°C° 0.2 mm 4 m/s 758 mmHg 80%
    07:00 +28°C° 0 mm 5 m/s 758 mmHg 77%
    08:00 +29°C° 0 mm 5 m/s 759 mmHg 74%
    09:00 +29°C° 0 mm 5 m/s 759 mmHg 70%
    10:00 +30°C° 0 mm 5 m/s 759 mmHg 69%
    11:00 +30°C° 0 mm 5 m/s 758 mmHg 67%
    12:00 +30°C° 0 mm 4 m/s 758 mmHg 66%
    13:00 +32°C° 0 mm 4 m/s 758 mmHg 63%
    14:00 +32°C° 0 mm 4 m/s 757 mmHg 60%
    15:00 +33°C° 0 mm 4 m/s 756 mmHg 57%
    16:00 +32°C° 0.1 mm 4 m/s 756 mmHg 60%
    17:00 +32°C° 0.1 mm 5 m/s 757 mmHg 63%
    18:00 +30°C° 0.1 mm 5 m/s 757 mmHg 66%
    19:00 +30°C° 0.1 mm 5 m/s 757 mmHg 66%
    20:00 +30°C° 0.1 mm 6 m/s 758 mmHg 66%
    21:00 +29°C° 0.1 mm 6 m/s 758 mmHg 66%
    22:00 +29°C° 0 mm 6 m/s 758 mmHg 68%
    23:00 +29°C° 0 mm 7 m/s 758 mmHg 70%

    30 Avril, Mardi

    Heure Température Précipitation Vent Pression Humidité
    00:00 +28°C° 0 mm 7 m/s 758 mmHg 72%
    01:00 +28°C° 0.1 mm 6 m/s 757 mmHg 74%
    02:00 +27°C° 0.1 mm 6 m/s 757 mmHg 77%
    03:00 +26°C° 0.1 mm 6 m/s 757 mmHg 79%
    04:00 +26°C° 0 mm 6 m/s 757 mmHg 78%
    05:00 +27°C° 0 mm 6 m/s 757 mmHg 78%
    06:00 +27°C° 0 mm 6 m/s 757 mmHg 77%
    07:00 +27°C° 0 mm 6 m/s 757 mmHg 75%
    08:00 +28°C° 0 mm 6 m/s 758 mmHg 73%
    09:00 +28°C° 0 mm 6 m/s 758 mmHg 72%
    10:00 +29°C° 0 mm 6 m/s 758 mmHg 67%
    11:00 +32°C° 0 mm 5 m/s 757 mmHg 63%
    12:00 +33°C° 0 mm 5 m/s 757 mmHg 58%
    13:00 +34°C° 0 mm 5 m/s 756 mmHg 55%
    14:00 +35°C° 0 mm 4 m/s 756 mmHg 52%
    15:00 +35°C° 0 mm 4 m/s 755 mmHg 49%
    16:00 +34°C° 0 mm 4 m/s 755 mmHg 54%
    17:00 +33°C° 0 mm 3 m/s 756 mmHg 59%
    18:00 +31°C° 0 mm 3 m/s 756 mmHg 63%
    19:00 +30°C° 0.1 mm 3 m/s 757 mmHg 67%
    20:00 +29°C° 0.1 mm 3 m/s 757 mmHg 71%
    21:00 +28°C° 0.1 mm 4 m/s 758 mmHg 75%
    22:00 +28°C° 0.2 mm 4 m/s 758 mmHg 76%
    23:00 +28°C° 0.2 mm 5 m/s 758 mmHg 77%

    1 Mai, Mercredi

    Heure Température Précipitation Vent Pression Humidité
    00:00 +27°C° 0.2 mm 6 m/s 757 mmHg 78%
    01:00 +27°C° 0 mm 6 m/s 757 mmHg 78%
    02:00 +27°C° 0 mm 6 m/s 757 mmHg 78%
    03:00 +27°C° 0 mm 6 m/s 756 mmHg 77%
    04:00 +27°C° 0 mm 6 m/s 756 mmHg 77%
    05:00 +27°C° 0 mm 6 m/s 757 mmHg 78%
    06:00 +26°C° 0 mm 6 m/s 757 mmHg 78%
    07:00 +27°C° 0 mm 6 m/s 757 mmHg 75%
    08:00 +28°C° 0 mm 6 m/s 757 mmHg 72%
    09:00 +29°C° 0 mm 6 m/s 758 mmHg 69%
    10:00 +32°C° 0 mm 6 m/s 757 mmHg 63%
    11:00 +34°C° 0 mm 6 m/s 757 mmHg 57%
    12:00 +35°C° 0 mm 5 m/s 756 mmHg 50%
    13:00 +36°C° 0 mm 5 m/s 756 mmHg 50%
    14:00 +36°C° 0 mm 4 m/s 755 mmHg 50%
    15:00 +36°C° 0 mm 4 m/s 755 mmHg 50%
    16:00 +35°C° 0.9 mm 3 m/s 755 mmHg 55%
    17:00 +34°C° 0.9 mm 3 m/s 755 mmHg 60%
    18:00 +31°C° 0.9 mm 3 m/s 756 mmHg 65%
    19:00 +30°C° 1.7 mm 4 m/s 756 mmHg 70%
    20:00 +30°C° 1.7 mm 5 m/s 757 mmHg 75%
    21:00 +29°C° 1.7 mm 5 m/s 758 mmHg 80%
    22:00 +28°C° 0.9 mm 5 m/s 758 mmHg 80%
    23:00 +28°C° 0.9 mm 6 m/s 757 mmHg 81%
    Voir plus